Home   Weather   Nipigon   Past weeks

Flag for Canada Past Weather in Nipigon, Ontario, Canada — Yesterday and Last 2 Weeks

Now
12 °F

Cold.


Feels Like: -7 °F
Forecast: -1 / 10 °F
Wind: 21 mph from Northwest

Location: Katatota Island

Current Time: Dec 10, 2016 at 7:57:21 am

Latest Report: Dec 10, 2016 at 6:00 am


Visibility: N/A

Pressure: 30.37 "Hg

Humidity: 95%

Dew Point: 11 °F

Location of NipigonLocation

Past Weather in Nipigon — Graph

°F

Nipigon Temperature Yesterday

Maximum temperature yesterday: 18 °F (at 12:00 am)
Minimum temperature yesterday: 15 °F (at 10:00 pm)
Average temperature yesterday: 17 °F

High & Low Weather Summary for the Past Weeks

 TemperatureHumidityPressure
High41 °F (Nov 28, 4:00 am)100% (Nov 27, 7:00 am)30.42 "Hg (Nov 27, 7:00 am)
Low11 °F (Dec 10, 4:00 am)74% (Dec 5, 7:00 pm)29.20 "Hg (Nov 29, 7:00 am)
Average31 °F92%29.89 "Hg
* Reported Nov 25 6:00 am — Dec 10 6:00 am, Nipigon, Weather by CustomWeather, © 2016

Note: Actual official high and low records may vary slightly from our data, if they occured in-between our weather recording intervals... More about our weather records

Advertising

Nipigon Weather History for the Previous 24 Hours

Scroll right to see more
 ConditionsComfort  
Time TempWeatherWind HumidityBarometerVisibility
6:00 am
Sat, Dec 10
12 °FCold.21 mph95%30.37 "HgN/A
5:00 am11 °FCold.16 mph95%30.38 "HgN/A
4:00 am11 °FCold.18 mph91%30.38 "HgN/A
3:00 am13 °FCold.16 mph95%30.38 "HgN/A
2:00 am12 °FCold.14 mph90%30.37 "HgN/A
1:00 am14 °FCold.16 mph94%30.37 "HgN/A
12:00 am14 °FCold.16 mph93%30.37 "HgN/A
11:00 pm
Fri, Dec 9
17 °FCold.16 mph84%30.36 "HgN/A
10:00 pm15 °FCold.15 mph94%30.37 "HgN/A
9:00 pm17 °FCold.18 mph93%30.37 "HgN/A
8:00 pm17 °FCold.14 mph86%30.37 "HgN/A
7:00 pm17 °FCold.13 mph91%30.37 "HgN/A
6:00 pm17 °FCold.13 mph92%30.39 "HgN/A
5:00 pm17 °FCold.14 mph88%30.39 "HgN/A
4:00 pm16 °FCold.12 mph79%30.39 "HgN/A
3:00 pm16 °FCold.14 mph79%30.39 "HgN/A
2:00 pm15 °FCold.14 mph87%30.40 "HgN/A
1:00 pm16 °FCold.16 mph86%30.41 "HgN/A
12:00 pm17 °FCold.17 mph93%30.41 "HgN/A
11:00 am17 °FCold.15 mph90%30.42 "HgN/A
10:00 am16 °FCold.14 mph93%30.42 "HgN/A
9:00 am16 °FCold.13 mph88%30.41 "HgN/A
8:00 am16 °FCold.15 mph88%30.40 "HgN/A
7:00 am17 °FCold.17 mph91%30.40 "HgN/A
Weather by CustomWeather, © 2016

See weather overviewHow to use our weather pages